Theta_e
307 307 308 307 306 306 306 305 305 306 306 306 307 307 307 306 306 306 307 307 307 307 308 308 308 308 309 310 310 311 311 311 312 313 315 316 314 314 315 314 314 313 312 312 313 313 313 315 314 314 316 316 315 317 318 316 315 316 317 314 311 313 313 314 317 316 315 316 315 313 312 314 315 313 311 310 311 312 312 313 313 311 309 309 308 307 308 308
307 307 308 308 308 307 307 306 306 306 306 307 307 308 307 307 306 307 307 307 307 308 308 308 308 309 309 310 311 312 311 311 312 316 317 316 315 315 315 314 313 312 312 312 313 313 313 314 314 314 316 315 315 317 319 317 316 316 316 314 312 314 313 312 315 315 315 315 315 314 310 312 314 313 311 313 314 313 313 314 313 312 309 310 310 309 309 309
307 307 308 308 308 308 308 307 307 306 306 307 307 307 308 308 306 307 307 308 308 308 308 308 309 310 311 312 313 312 312 311 313 316 316 315 315 315 314 313 312 312 312 313 312 313 314 314 314 314 315 314 314 317 318 317 316 316 316 314 314 315 313 312 313 314 314 313 315 314 310 311 313 311 311 313 314 314 314 313 313 312 311 310 310 309 309 309
307 308 307 307 307 308 308 308 308 307 306 307 307 308 309 309 308 307 308 308 308 309 309 310 311 312 313 314 314 314 312 313 314 314 314 315 315 314 313 312 312 313 313 312 313 314 314 314 314 314 315 314 314 315 315 316 316 316 315 315 315 313 313 313 312 313 312 311 314 313 310 312 312 310 311 312 314 315 313 310 309 310 310 309 309 309 309 309
311 311 308 308 308 307 307 308 308 308 307 307 308 308 308 309 309 309 308 309 309 310 311 311 313 313 314 315 315 314 313 314 314 313 315 315 314 314 313 313 313 313 313 313 313 314 314 314 314 315 314 314 314 314 313 313 314 315 315 315 314 312 314 314 312 312 311 310 312 311 312 313 310 310 311 312 313 314 310 308 307 308 308 307 307 308 308 308
313 313 312 311 310 308 307 307 307 308 308 307 308 309 309 309 310 311 311 311 312 312 313 313 314 314 315 315 315 314 313 312 312 313 314 314 314 313 313 313 313 313 313 313 313 314 314 314 314 314 314 313 313 313 313 312 312 315 314 312 313 313 314 314 312 312 310 310 312 312 312 310 311 311 310 310 311 310 307 307 307 307 307 306 307 307 307 307
312 312 313 312 311 309 308 306 307 308 308 308 308 309 309 310 311 313 314 313 313 314 314 315 315 315 316 315 314 314 314 313 312 312 313 313 313 313 313 314 314 314 313 314 314 314 314 313 313 313 314 313 312 312 312 312 313 314 315 313 313 312 313 314 312 311 309 311 312 310 309 310 312 311 309 308 307 306 306 307 306 306 306 306 307 306 306 307
312 312 313 312 311 311 309 308 307 307 308 308 309 310 310 310 311 313 315 315 314 315 316 316 316 316 316 315 316 315 314 314 313 314 315 314 313 313 313 314 314 314 313 314 313 314 314 313 313 312 314 313 312 313 310 312 315 314 314 314 312 310 312 312 309 309 309 310 309 308 309 311 311 310 309 307 305 306 307 306 306 307 306 306 305 305 306 306
312 312 313 313 312 312 311 310 310 309 308 308 310 310 310 311 312 313 315 316 315 316 316 316 316 316 315 315 316 314 313 315 315 315 316 315 315 314 315 315 314 313 313 313 313 314 313 313 313 312 313 312 310 312 310 312 315 313 313 313 312 311 311 310 309 310 309 308 308 309 312 311 308 309 309 305 304 307 306 306 306 306 306 305 304 305 306 306
313 311 312 313 313 313 312 312 313 312 309 309 310 310 310 311 312 313 315 316 316 316 316 315 316 315 314 315 315 313 313 318 317 317 317 317 317 316 316 315 314 313 313 312 312 314 313 313 313 312 313 311 310 311 310 312 313 311 311 311 311 311 310 310 310 310 309 308 308 310 313 310 306 309 310 306 304 306 306 306 305 305 305 304 304 304 305 305
313 312 313 314 313 314 313 312 313 313 311 310 310 310 311 312 312 314 314 316 316 315 315 315 315 315 314 314 315 315 315 319 321 319 319 318 318 317 316 315 314 313 313 312 313 313 313 313 311 311 314 312 311 310 309 310 310 309 310 311 312 311 311 310 310 309 309 310 308 309 311 309 307 309 310 306 304 306 307 306 305 304 304 303 303 303 304 304
313 313 314 315 315 315 314 313 313 313 312 311 311 311 312 312 314 315 315 316 316 315 316 316 315 314 314 314 315 315 315 317 320 320 319 318 318 317 316 314 314 313 313 313 313 312 312 311 311 312 313 312 312 312 310 308 308 309 309 313 314 313 314 311 309 308 309 310 306 308 311 310 310 310 309 306 305 307 307 306 305 304 304 303 303 303 304 304
313 314 315 315 315 314 314 313 313 313 313 313 313 312 313 313 314 316 316 316 315 315 316 316 316 314 314 314 314 314 314 316 319 319 317 317 316 316 315 314 314 312 313 313 313 312 311 311 312 312 311 312 314 311 310 308 308 310 310 312 315 316 315 310 308 308 310 309 305 309 313 313 311 308 308 306 304 306 308 307 305 304 304 303 303 303 303 303
312 313 315 315 314 314 315 315 313 313 313 313 313 314 314 314 315 316 316 317 316 316 316 316 316 314 313 314 313 313 314 315 319 319 317 316 315 315 314 313 313 312 313 313 312 312 311 310 311 311 310 311 311 309 310 310 310 312 312 312 314 316 315 311 309 309 312 309 305 310 314 314 311 308 308 306 304 306 309 307 305 305 304 303 303 303 303 303
313 313 314 315 315 317 318 316 314 313 313 313 313 315 315 316 317 317 316 317 317 317 315 315 315 313 314 315 313 313 313 315 317 317 316 316 315 314 313 313 313 313 313 313 313 312 311 311 312 313 310 308 310 311 314 314 312 313 313 315 316 315 315 314 309 308 312 309 307 311 314 315 311 308 308 305 306 308 308 307 305 304 303 303 303 302 303 303
313 313 314 315 316 317 317 316 315 313 313 313 314 315 316 317 318 317 316 315 316 315 314 315 314 313 315 315 314 314 314 315 316 316 315 314 314 314 313 312 312 312 312 312 311 311 311 312 311 311 310 310 312 315 315 316 315 314 314 317 318 315 315 315 310 307 310 310 310 312 314 316 312 308 307 305 306 308 307 306 305 304 303 303 303 302 302 303
314 313 314 315 316 317 317 316 316 313 312 313 314 316 316 317 317 316 315 315 315 315 315 315 313 314 315 314 313 314 313 314 316 316 316 314 314 313 312 311 311 311 311 311 311 311 312 311 309 310 312 312 313 315 316 317 317 316 315 316 316 315 314 314 313 309 309 310 313 312 313 316 311 307 307 306 305 307 308 306 304 304 303 302 302 302 302 302
314 314 315 316 316 316 317 317 315 313 313 313 314 316 316 316 316 315 315 315 314 313 314 313 313 317 317 313 313 313 312 313 315 316 316 314 313 313 312 311 310 312 312 312 312 312 312 311 311 314 314 312 313 315 317 317 317 317 316 316 315 314 313 314 314 311 310 312 314 313 313 315 312 308 307 306 304 307 307 305 304 303 302 302 302 302 301 301
315 316 316 316 316 316 317 316 314 313 313 314 316 316 315 315 315 315 315 316 314 314 316 315 314 318 317 313 312 313 312 313 315 316 314 313 312 312 312 311 311 313 313 314 314 312 312 313 314 316 316 315 314 315 317 318 317 317 317 316 316 315 314 314 313 310 309 312 314 314 314 315 314 312 307 305 305 306 306 304 304 303 302 302 301 301 301 301
316 317 317 318 317 317 317 316 315 313 314 316 316 315 314 315 317 317 316 315 316 316 316 315 315 316 314 312 312 312 312 312 314 314 313 312 312 312 311 311 313 314 313 316 315 311 312 315 316 317 318 316 315 315 315 315 314 315 316 316 315 316 315 315 313 309 308 312 314 314 314 314 314 313 308 305 305 305 305 305 304 303 302 302 301 301 301 300
317 317 318 319 319 319 318 317 315 313 314 316 316 316 315 316 318 317 316 317 318 317 315 314 313 314 313 311 311 312 313 312 312 313 313 311 312 314 312 311 314 315 313 314 313 310 311 316 318 317 316 314 314 314 313 312 313 313 315 315 315 315 316 314 312 309 307 311 314 312 312 313 314 313 308 305 306 306 305 305 304 302 301 301 301 300 300 299
317 317 317 319 320 319 317 317 315 313 314 316 317 317 317 316 315 313 315 317 318 317 316 314 313 313 312 311 311 312 313 314 313 313 312 311 312 314 313 312 314 315 312 312 313 313 314 316 317 314 311 311 311 311 312 312 313 313 314 315 316 316 315 314 311 308 308 311 314 312 312 314 314 311 306 305 306 304 303 303 302 301 301 300 300 300 300 300
318 317 316 318 320 318 317 316 314 314 315 316 317 317 317 316 314 314 315 317 318 317 315 315 314 314 313 312 312 311 313 315 315 314 312 311 312 313 312 313 314 313 311 312 315 316 316 316 314 312 310 310 310 309 310 312 312 313 314 314 316 316 316 316 313 309 308 309 312 312 312 314 314 310 306 304 303 302 300 300 300 300 300 300 299 299 299 299
317 317 317 317 317 317 318 315 313 314 316 316 316 317 317 316 315 316 317 318 319 318 315 315 315 315 315 314 313 313 314 315 315 314 312 311 311 311 312 313 313 312 312 313 315 317 317 313 310 310 310 312 311 309 310 313 313 314 314 315 317 316 315 316 314 310 310 309 309 311 314 316 315 312 309 304 301 301 300 299 300 299 298 298 297 298 297 298
317 318 320 318 317 318 317 314 313 314 316 316 316 316 316 317 315 314 317 320 322 319 316 316 316 316 315 314 313 313 314 314 314 314 312 311 311 311 311 311 312 313 314 312 313 315 315 310 308 310 310 312 313 311 312 314 316 317 315 314 315 315 315 314 313 312 314 315 311 311 319 320 314 312 311 306 303 303 301 300 301 299 298 298 298 298 297 296
318 318 320 319 318 317 316 315 314 314 316 316 316 315 315 318 316 314 315 322 323 320 317 317 318 318 316 314 312 312 316 315 311 311 311 311 311 311 311 311 311 313 313 311 312 315 313 309 310 312 312 313 314 314 314 315 316 318 316 314 313 313 314 314 313 314 317 319 311 309 318 321 316 315 312 307 306 305 302 301 301 300 299 298 298 298 297 296
320 319 320 319 318 317 315 315 315 315 316 316 315 314 316 318 316 313 315 323 325 322 319 317 317 318 315 313 312 315 319 315 310 309 310 311 310 311 313 312 311 311 310 312 315 315 312 310 312 314 315 315 315 316 315 313 316 319 316 314 313 313 314 314 314 315 316 317 313 310 314 318 318 317 311 307 308 306 304 303 302 300 299 298 298 297 297 296
320 319 319 319 318 317 315 315 315 315 316 316 315 315 317 318 315 315 321 326 325 321 320 316 313 313 312 310 312 315 314 312 315 312 306 308 310 310 314 314 313 312 310 313 319 316 313 314 314 315 315 316 316 317 315 313 317 317 312 311 311 312 314 314 314 315 314 314 317 315 314 316 319 316 309 306 309 308 306 305 304 301 300 299 298 297 296 296
319 318 318 318 318 317 315 315 316 315 315 315 317 318 318 317 315 319 325 326 323 319 318 315 312 311 311 311 312 311 308 309 314 311 306 308 309 309 312 312 312 313 310 312 319 317 312 311 312 314 316 316 316 313 311 314 316 312 309 309 310 311 312 312 314 314 313 315 320 318 315 317 320 318 313 310 311 312 310 306 305 302 300 299 298 297 296 295
318 318 318 317 318 316 315 315 315 316 315 316 319 318 317 316 319 326 327 327 326 319 313 312 312 312 314 315 314 310 309 309 308 308 308 309 308 308 309 309 310 313 312 311 315 314 307 305 308 313 314 313 311 306 307 312 312 309 310 312 312 311 311 311 312 312 315 318 319 316 315 317 318 319 318 316 313 312 311 308 305 302 300 299 298 297 296 295
319 318 318 317 318 316 315 315 314 316 316 317 318 316 317 321 325 329 327 325 323 318 313 312 312 313 315 319 318 312 309 310 308 310 311 309 310 309 310 311 312 313 314 314 314 312 308 308 310 310 308 308 309 307 306 306 307 309 313 314 315 314 312 313 313 313 318 321 315 310 311 314 318 319 317 314 309 308 309 308 305 302 301 299 298 297 296 295
320 318 318 317 318 316 315 316 314 315 317 315 315 316 320 325 327 328 325 321 321 320 317 315 312 314 317 318 318 312 311 311 309 311 312 311 312 312 314 317 316 318 319 317 317 314 313 313 312 310 306 308 312 312 308 306 307 311 313 314 318 319 316 318 318 316 319 319 311 308 310 313 317 317 315 312 308 306 306 306 305 303 301 300 298 297 296 295
320 319 318 317 318 316 315 315 314 316 316 313 314 320 324 326 327 326 324 321 322 319 315 314 312 314 317 318 316 311 312 313 310 310 311 312 314 314 315 315 315 320 321 318 319 317 317 316 312 311 310 309 313 314 313 311 309 311 314 316 320 320 320 322 320 316 319 316 309 308 312 315 317 316 313 310 307 303 302 302 303 303 301 300 299 297 296 295
320 319 318 317 318 316 315 315 314 316 315 313 317 323 325 326 326 325 325 323 321 316 312 313 313 314 317 318 315 312 314 314 310 311 312 311 314 315 315 313 312 317 317 318 319 318 322 322 314 313 313 311 312 315 316 314 311 312 314 316 318 319 321 323 320 319 319 315 310 309 312 318 318 313 306 304 301 300 299 299 300 302 301 300 298 297 296 295
321 320 318 317 317 316 315 314 314 315 315 315 320 325 326 327 326 326 327 323 319 315 312 313 314 317 318 316 312 311 315 315 311 311 312 313 315 316 316 314 312 313 316 320 319 317 321 322 314 311 310 310 312 313 313 313 313 311 310 313 316 316 317 315 314 314 314 314 313 311 314 316 314 309 301 300 300 299 299 299 299 301 300 299 298 297 296 295
320 319 318 317 316 316 315 315 314 315 315 316 322 325 325 325 326 328 327 322 318 315 313 314 316 318 319 317 314 312 313 314 312 313 313 313 314 315 316 316 312 312 316 320 319 316 319 319 312 309 308 308 310 311 311 313 315 311 310 314 314 312 313 313 311 309 309 317 318 314 315 314 312 310 303 300 302 301 300 300 300 300 299 298 298 297 296 295
319 317 317 317 316 316 316 315 315 316 315 318 323 324 324 324 325 327 326 319 315 314 316 319 319 318 319 319 317 314 314 314 312 314 315 314 315 315 314 316 313 312 315 317 317 317 318 318 312 310 311 307 305 308 310 311 312 312 313 315 312 311 313 314 316 314 313 319 319 315 317 316 316 315 307 303 305 304 302 300 300 300 299 298 298 298 297 296
318 317 317 317 317 316 316 315 316 316 316 319 322 322 323 324 323 324 322 317 314 315 318 321 321 319 319 320 319 315 315 317 314 315 316 315 316 316 313 315 314 312 313 314 316 317 317 319 314 310 311 308 304 309 311 309 309 310 312 312 312 315 316 315 317 319 319 321 318 313 314 314 316 317 312 309 309 307 303 301 300 300 299 299 299 298 297 296
317 317 318 318 317 316 316 316 316 316 319 321 320 320 322 323 323 324 321 317 317 317 319 322 323 320 319 319 319 315 315 317 314 314 317 316 317 315 313 315 315 312 311 312 314 316 315 319 318 310 309 309 307 310 313 311 309 308 309 310 311 314 316 316 316 317 319 320 317 315 313 313 315 315 314 313 312 309 305 301 301 302 300 300 300 299 297 296
316 318 319 317 317 317 316 315 316 318 320 320 319 319 321 322 323 324 321 319 322 321 320 325 325 322 321 320 319 316 315 316 314 314 318 317 315 315 312 313 314 312 311 312 314 316 315 319 320 312 309 310 311 312 314 313 310 310 311 312 312 311 312 314 313 312 315 318 317 317 317 315 312 311 313 314 311 309 307 304 303 302 301 300 300 299 298 297
316 319 320 317 317 317 316 316 318 320 320 319 318 318 319 321 322 323 320 319 323 322 321 325 326 324 324 321 320 318 316 317 315 315 318 316 315 317 313 312 313 311 311 312 314 316 316 317 318 314 311 313 314 313 312 313 313 312 313 313 313 313 313 316 317 311 311 315 315 315 318 317 310 306 308 309 308 307 307 306 305 303 302 301 300 299 298 297
317 321 318 316 318 317 316 318 319 320 320 319 319 318 318 320 320 321 320 318 321 322 320 322 325 326 326 323 322 321 318 318 316 316 319 318 318 320 313 310 313 312 311 313 314 316 316 316 317 316 314 313 312 308 306 310 313 312 313 314 314 315 314 318 321 315 311 312 312 311 316 317 308 302 303 304 302 303 304 305 305 304 302 301 300 299 299 298
319 319 315 314 317 317 318 321 320 320 321 320 319 319 319 319 318 320 321 319 320 322 321 322 323 324 325 324 323 321 319 319 318 317 320 321 320 317 311 311 314 314 313 314 314 315 315 316 318 318 316 312 309 307 307 309 311 311 313 313 313 314 316 318 319 316 314 314 312 313 317 317 308 302 302 301 299 300 301 302 303 303 302 301 300 300 299 298
315 314 312 312 315 317 320 322 321 320 321 319 319 318 318 319 318 319 320 320 321 322 322 322 322 323 324 324 322 321 320 321 320 318 320 322 318 312 309 313 316 317 317 315 315 315 315 317 319 319 320 318 315 314 313 312 312 312 313 313 313 315 317 316 315 313 315 317 316 317 319 317 311 305 304 302 301 301 300 300 300 301 301 300 299 299 298 297
313 313 312 311 311 314 318 321 320 321 320 320 319 319 318 318 318 319 319 319 320 321 322 322 321 322 323 322 321 320 320 321 321 318 318 319 316 311 309 312 315 320 320 317 318 319 316 319 320 320 322 324 322 321 318 316 314 313 313 313 313 314 315 314 314 314 316 317 316 318 319 317 311 307 306 305 304 303 301 299 299 299 299 299 299 298 297 296
315 314 313 312 311 311 313 315 317 320 320 320 320 319 318 318 317 317 319 319 319 319 320 321 319 320 321 320 321 320 319 319 319 318 317 318 316 311 308 308 311 316 317 316 320 319 316 317 320 320 322 321 321 320 318 317 317 314 314 314 312 312 313 313 314 315 316 315 315 317 317 317 313 309 309 309 306 305 303 300 299 298 298 298 298 298 297 296
314 315 313 314 314 313 313 313 315 319 319 319 319 318 318 318 317 317 317 318 319 318 318 318 318 319 320 320 321 320 318 318 317 316 316 317 314 309 306 308 310 311 313 315 318 318 316 317 319 320 320 319 320 319 316 317 317 316 316 315 313 311 312 313 315 316 316 315 316 317 315 316 315 311 310 310 307 307 306 303 301 300 299 299 298 298 298 296
309 311 310 310 313 314 313 313 314 316 318 319 318 317 318 318 317 318 317 317 317 317 318 317 317 318 319 319 319 318 316 316 315 315 315 315 314 311 309 310 310 309 311 313 314 316 316 317 318 319 317 317 319 317 314 315 316 314 315 315 313 311 311 313 313 315 316 316 317 316 314 315 314 312 313 312 309 309 309 306 303 300 299 299 298 297 297 296
305 306 304 305 309 310 310 312 312 314 317 318 317 316 317 317 316 317 317 316 316 317 317 316 315 316 317 316 316 315 315 316 315 314 314 314 314 313 313 313 310 307 310 313 313 315 316 316 317 318 317 317 316 314 312 313 314 313 313 314 314 312 311 311 312 313 314 315 315 315 314 313 313 314 315 313 308 307 306 303 301 300 299 298 297 297 297 296
305 306 305 305 305 305 307 309 311 313 314 314 315 315 315 316 316 316 315 316 316 316 316 315 313 314 315 314 314 314 314 316 316 315 314 314 314 314 314 315 311 307 308 311 312 312 314 316 315 315 316 315 312 311 311 311 312 314 314 314 314 313 311 311 312 312 312 313 313 313 314 313 313 315 315 309 306 305 304 302 301 300 299 298 297 298 298 297
299 300 302 306 306 304 305 307 307 310 311 311 312 312 312 315 315 315 314 313 314 315 314 314 313 313 313 312 312 313 314 316 318 317 315 316 315 315 316 315 312 310 308 309 311 311 312 312 311 313 317 315 309 308 309 308 309 311 313 314 313 312 312 311 311 312 312 313 312 312 313 312 311 312 311 306 304 305 305 303 302 300 299 299 299 299 298 298
297 297 299 305 307 304 304 305 306 309 310 310 309 309 310 311 312 313 313 311 313 313 312 313 314 312 312 313 313 314 315 315 315 314 314 315 316 316 317 315 312 311 310 308 309 310 310 311 310 313 318 313 305 305 308 308 311 313 313 313 312 311 311 311 310 311 311 312 313 313 313 312 309 308 308 304 302 303 304 303 302 302 300 298 299 300 300 299
Wind_Speed
2 1 1 1 2 2 2 3 3 2 2 2 2 2 2 2 2 2 2 1 1 1 1 1 2 3 5 6 8 9 10 10 7 5 3 1 4 7 5 4 4 4 3 3 2 2 3 4 5 4 3 3 3 1 1 2 1 1 1 0 1 1 1 2 4 3 2 3 3 2 1 3 3 1 0 2 4 3 5 4 1 4 7 9 7 6 8 11
2 1 1 1 2 2 3 3 3 3 3 2 2 2 2 2 3 2 2 1 1 1 1 2 2 3 4 6 8 9 11 8 4 5 4 3 7 7 5 4 5 5 4 3 3 2 2 3 3 3 2 1 1 1 0 1 2 0 0 1 1 2 2 0 2 2 1 2 2 1 0 2 3 2 2 3 2 2 5 2 2 5 7 7 10 11 11 12
2 2 2 2 2 2 3 3 4 4 4 3 3 3 2 2 3 2 2 1 0 1 1 1 2 3 4 6 7 9 10 4 3 3 4 6 8 7 5 5 5 5 4 3 3 3 3 4 3 1 1 1 2 1 0 2 2 0 1 1 2 2 1 2 2 2 1 1 2 0 1 2 1 1 2 4 7 4 1 3 1 1 3 6 9 11 12 12
3 2 2 2 2 3 3 3 3 4 4 4 3 3 2 2 2 2 2 1 0 0 1 1 2 3 4 5 6 8 9 2 3 2 3 6 7 7 6 6 5 4 3 3 4 5 6 6 4 2 1 2 2 1 1 3 2 1 1 1 4 1 1 4 4 2 1 1 2 0 1 3 1 0 3 4 7 3 3 5 6 4 5 6 7 9 10 11
2 2 2 2 3 3 3 3 3 3 4 4 4 3 3 2 1 2 2 1 1 1 1 1 2 3 4 5 5 7 8 2 3 4 5 6 7 7 6 6 4 3 4 4 5 6 6 4 3 2 1 2 1 0 1 3 2 1 0 2 4 2 1 4 4 2 2 2 2 2 3 1 1 2 2 3 6 2 3 6 6 5 5 6 6 8 9 12
3 2 3 3 3 3 3 3 3 3 3 4 4 4 4 3 2 1 1 1 1 1 1 1 2 3 3 4 5 5 5 2 3 6 6 6 7 7 6 6 4 3 3 4 6 5 4 2 1 1 1 1 1 1 2 1 1 1 1 1 2 2 2 2 3 3 3 3 3 3 1 0 2 3 1 2 3 4 5 5 5 6 5 5 7 9 10 12
5 3 3 4 3 3 3 4 4 4 4 4 4 4 4 3 2 2 2 2 1 1 2 2 2 3 3 3 3 2 1 2 3 8 7 6 7 7 6 5 3 3 4 5 5 3 3 2 1 2 1 1 1 1 2 1 1 3 1 2 2 2 3 1 2 3 5 5 3 1 0 3 4 2 2 2 4 6 5 5 5 6 6 6 9 10 10 10
6 5 5 5 3 3 4 4 4 5 5 4 4 4 4 3 2 2 2 2 2 2 2 2 2 2 1 1 1 1 1 2 4 8 7 6 6 6 6 4 4 4 5 5 4 4 4 3 3 3 1 1 2 3 2 2 3 3 1 2 2 3 5 3 2 4 6 6 2 2 4 4 3 1 3 3 5 5 5 5 4 4 6 8 9 9 9 9
7 6 7 6 4 4 4 3 4 5 5 5 5 5 4 4 3 3 3 3 2 2 2 3 2 1 1 1 1 3 2 2 4 6 6 7 6 6 6 5 5 6 6 5 5 6 5 3 3 4 1 3 3 2 2 3 1 2 1 1 2 2 3 3 5 6 4 3 3 5 5 2 2 2 4 4 4 4 5 5 4 5 7 9 8 8 9 9
8 5 5 6 6 5 4 3 4 4 5 6 6 6 5 4 3 3 3 3 2 2 2 3 2 2 2 2 1 3 2 2 3 4 5 6 6 6 6 5 5 7 5 4 5 5 3 2 4 3 1 3 3 2 2 2 1 1 1 2 4 3 3 3 5 4 2 2 5 6 5 3 2 2 2 5 4 4 4 6 6 6 8 8 7 8 9 9
9 5 4 7 6 5 4 5 4 4 5 5 5 5 5 4 4 4 4 3 3 2 2 2 2 2 2 3 4 4 2 3 4 5 5 6 6 6 6 5 5 6 6 4 5 5 1 4 8 4 0 3 4 2 1 0 2 1 1 4 5 4 5 4 4 3 2 2 4 5 2 4 2 2 2 5 3 3 4 6 6 6 6 6 6 6 7 8
9 5 4 7 6 6 6 6 5 4 4 4 5 5 5 5 4 4 4 3 3 2 2 2 3 4 3 2 5 5 3 5 6 6 6 6 6 6 5 6 6 5 5 3 6 6 3 8 10 3 1 4 4 2 2 1 1 0 1 5 5 5 5 1 0 1 1 1 2 4 3 4 5 3 4 4 2 4 4 5 5 6 5 4 4 4 5 6
10 8 7 8 8 7 8 8 5 4 4 4 4 4 5 5 4 4 3 2 2 2 2 3 4 5 3 2 4 7 7 7 6 6 7 6 5 5 5 6 6 6 5 4 7 7 6 9 7 3 2 2 1 1 3 3 1 1 1 3 6 6 2 2 1 1 2 1 2 3 3 3 6 5 4 4 2 5 3 4 4 4 4 3 3 3 4 6
11 11 9 8 7 6 8 9 7 5 5 4 4 4 4 3 3 2 2 1 2 2 2 3 5 5 2 3 2 5 9 8 7 7 7 6 5 5 5 6 6 6 5 5 8 9 7 9 7 6 2 2 2 4 3 2 1 2 1 1 2 4 1 4 1 2 2 1 1 5 5 1 8 6 3 5 1 6 3 4 3 3 3 2 3 3 4 5
12 10 8 7 5 6 9 10 11 8 5 5 4 3 3 2 2 1 1 1 1 2 3 4 6 5 1 4 3 4 7 8 9 9 7 7 7 5 6 8 7 7 6 7 10 10 9 9 7 5 2 2 3 4 1 1 0 1 3 3 2 2 2 3 2 2 2 1 0 5 4 1 8 6 4 4 1 4 3 3 3 3 3 2 2 3 3 4
13 12 10 8 6 7 9 10 13 10 5 4 2 1 2 0 1 2 2 2 3 4 4 4 6 3 3 2 2 3 5 6 8 11 10 10 8 7 10 11 9 9 9 10 12 12 9 6 2 1 2 2 4 4 1 2 2 2 3 5 2 3 3 1 3 2 2 0 1 2 4 2 6 5 3 3 0 3 4 3 3 3 3 3 2 2 3 3
14 13 9 7 7 8 8 8 12 11 6 1 1 2 1 2 4 4 5 6 6 5 4 4 6 2 3 2 2 3 4 6 8 10 12 10 9 12 13 9 7 9 11 10 9 7 4 3 1 1 1 1 3 4 3 5 5 3 2 4 3 3 4 2 2 2 2 2 2 1 5 6 4 6 1 2 1 2 4 4 3 2 2 2 2 2 3 3
13 11 8 8 9 9 9 10 11 11 4 3 2 2 3 5 4 5 7 9 8 6 3 3 4 2 4 4 3 2 4 5 8 9 11 10 11 14 11 6 6 9 10 6 3 2 1 1 1 2 2 3 4 6 6 5 4 3 4 4 3 3 5 5 2 1 1 2 3 3 6 9 4 8 3 2 1 2 3 3 3 2 2 2 2 2 3 3
14 11 9 10 9 9 11 11 10 6 2 4 2 3 7 5 3 4 6 6 4 2 1 4 6 2 2 3 2 4 6 8 8 8 10 12 13 12 8 7 7 6 6 4 3 2 1 2 2 3 6 7 8 10 10 3 2 1 3 2 3 4 6 5 1 1 1 4 7 8 9 11 9 5 6 4 2 2 3 3 2 2 2 2 2 2 3 3
14 12 12 12 10 10 12 12 9 4 6 3 3 5 4 2 1 2 4 4 6 3 1 4 7 2 1 1 4 8 8 7 4 5 11 13 14 10 6 5 4 3 4 5 4 3 2 4 6 8 7 8 11 13 7 2 4 2 2 2 4 5 7 4 2 3 1 4 7 8 9 11 12 5 5 5 3 3 3 3 2 2 2 1 2 2 2 3
14 13 14 14 14 14 12 10 9 7 9 4 5 4 1 2 2 1 2 6 10 8 4 3 4 3 0 2 8 10 5 3 2 4 12 13 13 10 5 5 6 5 3 2 4 2 2 7 11 9 2 2 7 9 4 2 3 3 4 5 4 5 7 5 1 3 2 3 5 4 6 11 12 4 5 4 5 4 3 3 3 2 2 1 2 2 2 2
16 14 13 15 18 16 10 12 11 10 10 7 8 5 4 2 1 2 0 4 7 10 9 3 2 6 2 2 9 9 2 3 3 5 11 12 10 8 6 7 8 6 4 4 4 3 4 9 11 5 6 6 2 4 6 6 6 4 4 4 4 4 5 5 0 3 2 3 3 2 5 11 8 2 4 3 3 3 1 2 2 2 3 2 2 2 2 2
16 16 15 15 16 13 11 14 9 12 12 10 10 9 3 1 3 3 0 4 3 5 7 6 7 8 6 4 8 9 5 5 6 7 13 12 7 4 7 10 8 5 7 9 8 6 6 7 7 6 7 5 3 4 7 5 5 6 4 4 6 3 2 5 1 3 2 2 3 2 5 10 7 3 4 3 3 4 3 2 2 2 2 2 2 1 2 3
18 18 17 16 16 14 12 10 8 14 15 12 14 14 5 4 5 2 0 3 4 2 4 6 6 7 9 6 9 14 8 5 4 7 16 15 7 4 7 9 7 6 8 13 13 11 5 1 1 8 8 8 5 5 8 5 5 7 7 7 8 5 6 7 1 2 3 3 2 3 7 9 6 4 3 3 4 4 4 4 4 3 3 3 3 2 1 1
19 20 19 19 19 16 10 6 9 15 14 11 17 18 11 5 5 3 0 2 4 2 1 4 5 6 9 8 11 12 5 5 3 5 17 16 7 6 4 3 4 8 11 12 11 10 4 4 4 9 8 9 8 6 8 8 6 5 8 11 12 8 7 5 0 1 5 3 2 2 6 4 2 4 4 4 4 5 4 5 5 5 4 4 4 4 3 2
21 21 20 20 19 15 9 5 10 14 12 13 17 15 14 9 5 3 1 2 5 3 3 5 6 7 10 8 9 8 1 5 1 4 14 13 5 4 3 3 1 5 8 8 5 5 2 4 4 7 7 8 7 6 8 8 6 5 4 8 11 9 6 5 4 3 4 3 1 0 5 4 1 3 4 5 5 5 5 5 6 6 5 5 5 4 4 3
25 23 22 22 20 17 11 4 9 14 9 11 15 13 15 14 9 4 1 2 6 4 5 2 2 6 9 6 7 8 2 2 5 4 6 7 4 1 3 7 3 2 4 4 3 2 4 6 4 5 6 7 7 6 7 9 7 3 1 3 7 8 7 7 7 6 3 2 0 3 3 5 6 2 3 4 5 6 7 7 7 7 6 6 6 5 5 4
28 26 24 24 24 22 14 5 9 16 12 6 8 14 14 13 11 4 1 4 4 4 5 1 1 3 4 3 3 4 1 2 5 2 2 2 3 1 4 8 7 6 5 5 6 2 4 7 8 9 7 6 6 2 7 12 7 1 3 2 4 4 5 6 6 5 1 1 4 5 4 4 7 2 3 3 5 7 8 9 9 8 8 7 7 6 6 5
30 27 25 26 25 22 19 13 9 14 18 9 5 14 16 14 9 1 1 4 2 3 3 3 4 2 4 5 2 2 2 1 1 1 2 2 2 1 3 4 5 7 4 4 5 1 1 3 4 7 7 6 3 4 3 9 4 3 5 5 6 4 4 3 3 3 2 3 7 6 8 5 6 3 4 3 4 7 7 8 9 8 8 7 6 7 6 5
31 28 26 28 26 23 23 21 16 13 14 11 9 17 20 11 5 2 3 5 1 3 2 3 4 3 8 10 3 1 2 1 2 3 2 2 2 3 0 1 3 5 2 2 2 1 2 1 1 2 2 2 5 6 3 1 3 7 7 6 7 5 4 2 1 2 2 5 5 3 6 6 4 3 5 3 1 1 4 7 8 8 8 8 7 7 6 6
32 30 29 31 31 28 23 19 23 18 9 10 16 20 15 4 0 5 7 3 1 3 3 3 3 6 13 12 5 4 3 1 4 6 5 4 3 3 4 4 3 3 2 3 3 1 1 2 1 1 1 3 6 5 4 3 2 4 4 5 5 3 3 2 2 2 5 5 2 2 2 5 6 4 2 1 2 1 3 6 10 12 10 9 8 7 7 6
34 31 32 35 34 32 24 19 26 23 10 14 21 14 7 3 3 8 6 2 1 4 5 4 4 8 11 6 2 5 5 3 5 6 6 5 6 7 7 7 7 4 5 7 5 2 2 3 2 2 0 2 5 5 4 2 1 3 4 7 6 3 3 4 3 3 5 2 2 2 2 4 7 6 3 1 3 2 1 2 7 12 12 10 10 8 7 6
37 34 34 38 37 35 32 26 26 23 16 19 16 5 3 6 9 12 9 4 2 1 4 4 4 7 10 6 3 5 2 2 6 5 3 4 6 8 4 3 4 2 2 6 6 3 3 2 3 4 2 4 8 7 4 4 5 7 7 7 7 5 4 5 3 2 3 1 3 2 1 3 4 5 3 2 4 2 1 1 2 9 10 10 10 9 8 7
38 36 37 41 40 38 36 28 23 24 22 17 9 5 7 10 13 12 11 6 1 2 3 5 7 8 8 5 4 7 3 2 7 5 3 5 6 8 6 5 6 1 2 4 5 6 5 3 5 8 3 6 11 6 2 6 7 6 3 2 4 4 3 4 3 2 1 2 3 1 1 4 3 1 1 1 2 1 0 1 2 5 7 8 9 8 8 8
39 41 40 40 40 37 35 31 27 29 24 12 6 8 11 13 10 9 9 6 2 2 4 5 9 9 7 2 2 7 4 2 7 6 4 7 6 8 9 8 9 5 4 5 3 4 6 3 2 2 1 6 10 2 3 6 6 2 1 1 3 2 1 0 0 1 2 1 2 3 3 3 2 2 1 0 0 1 2 2 4 5 7 8 8 8 8 8
39 41 36 34 36 37 37 34 33 34 23 8 6 10 11 10 4 3 5 5 5 7 9 6 5 6 6 3 4 8 4 1 7 6 4 5 5 6 6 6 10 10 8 7 3 3 3 1 2 2 1 3 3 2 2 1 3 4 3 4 2 1 1 2 0 2 2 4 3 4 4 3 1 2 3 3 3 4 4 4 6 7 9 9 9 9 9 9
34 31 27 30 37 39 40 37 35 33 18 5 8 9 7 5 2 1 1 2 5 10 11 6 6 7 7 5 6 10 6 3 7 7 5 4 4 6 7 4 8 13 11 5 2 3 3 1 1 1 2 1 2 1 3 3 1 4 5 5 3 0 0 1 2 1 2 5 3 4 7 6 5 3 3 5 6 7 7 6 7 8 10 11 10 10 10 10
28 21 19 30 41 41 42 42 37 26 9 4 10 10 6 4 2 1 0 2 4 8 8 7 7 7 8 7 7 10 10 6 8 7 6 5 4 8 11 6 7 15 13 4 0 2 3 2 2 0 1 3 1 3 4 2 1 1 2 2 2 3 3 2 3 2 3 5 3 4 6 5 7 5 4 7 10 10 10 8 9 11 12 12 12 12 12 11
20 10 9 24 37 39 44 45 33 16 5 6 11 10 6 6 3 1 2 2 2 5 9 7 5 4 6 7 5 8 9 8 10 8 6 6 4 7 11 5 5 13 13 8 3 1 2 3 2 1 0 3 2 4 6 5 2 2 1 2 0 3 2 2 2 1 3 4 3 2 3 3 7 7 9 12 12 11 12 10 11 14 15 14 13 13 13 12
11 3 3 17 34 40 45 40 21 10 8 9 11 8 5 5 3 2 3 3 1 3 5 5 6 5 5 5 3 5 8 7 9 7 5 6 5 6 8 4 4 8 8 8 5 2 2 3 3 3 1 3 5 5 6 8 7 5 5 6 4 1 0 1 2 1 1 4 3 4 4 3 4 3 6 8 6 9 13 12 12 13 14 15 14 14 14 13
6 4 2 19 37 42 38 23 9 9 9 9 11 11 7 4 3 3 3 2 1 1 1 2 5 4 4 5 3 4 6 6 7 5 4 7 5 3 2 1 4 8 7 6 6 4 3 3 4 5 4 6 3 1 1 2 4 5 6 8 8 6 4 3 4 2 0 3 2 3 5 2 3 1 1 1 1 4 9 10 9 11 15 16 15 16 15 13
4 5 3 21 42 42 25 10 6 8 8 7 9 10 7 4 4 5 4 2 1 1 2 0 2 2 3 3 3 4 6 5 6 5 3 5 3 1 1 2 1 8 8 5 4 2 1 2 4 4 3 3 1 3 1 1 1 1 2 3 5 5 6 6 6 3 2 2 1 1 4 3 2 2 2 1 2 1 3 5 5 7 10 13 13 14 13 11
3 4 5 22 41 37 17 7 8 8 8 5 5 6 7 5 6 7 6 6 4 2 3 2 1 3 3 2 3 5 6 3 4 4 2 2 2 1 1 1 1 5 4 2 3 3 2 2 4 3 2 2 2 1 0 2 1 1 1 1 3 4 3 3 3 1 3 4 3 1 5 2 1 0 1 1 1 1 2 4 5 4 5 8 9 9 9 8
2 1 2 15 30 27 14 9 10 10 9 6 5 8 7 4 8 10 10 10 7 3 4 4 2 3 2 3 4 6 7 3 3 4 1 2 3 1 1 1 1 3 2 1 3 5 4 4 5 5 4 3 2 2 2 0 2 3 2 2 4 4 3 2 1 2 3 6 7 6 8 2 2 1 1 0 1 0 1 2 5 4 4 6 7 6 6 6
2 1 1 6 12 12 8 6 9 11 11 10 10 12 9 4 6 10 11 10 6 4 4 3 3 3 2 2 3 4 6 3 3 4 1 1 1 2 3 2 1 2 3 2 1 4 4 2 5 8 8 8 5 4 4 3 3 2 2 4 6 7 8 4 3 4 5 5 8 9 8 2 1 1 2 2 0 1 2 3 5 4 3 5 6 6 6 6
2 1 1 3 3 3 2 1 4 8 10 11 9 10 13 11 4 4 8 8 5 5 4 1 2 3 3 5 4 5 5 2 2 4 4 3 1 1 2 2 2 2 3 1 2 2 2 1 3 5 5 4 3 2 2 3 4 5 5 6 7 8 9 7 4 6 5 4 6 10 8 7 5 4 4 5 3 2 2 4 5 5 5 6 7 7 7 6
2 2 2 2 1 3 2 3 3 6 9 12 7 6 14 15 5 3 7 6 5 7 3 1 4 5 7 9 8 6 6 3 4 6 7 4 2 1 1 1 2 0 1 1 3 3 3 1 3 3 5 2 3 3 2 3 4 7 7 8 10 8 9 10 9 6 5 3 9 8 7 11 9 6 7 7 5 4 4 5 6 6 6 6 5 6 6 6
1 1 1 0 0 4 5 4 4 5 9 12 7 6 13 15 10 8 7 4 5 8 5 1 6 9 9 10 7 5 6 4 3 6 6 3 3 2 1 2 2 3 2 1 2 3 4 3 3 4 6 5 3 3 3 3 2 4 7 9 11 11 12 13 12 8 7 9 13 5 8 13 9 6 8 7 6 5 4 4 4 4 5 6 6 7 8 8
1 1 1 2 1 2 2 1 1 3 7 10 7 7 11 16 15 9 4 4 5 7 7 5 7 8 7 7 6 5 7 6 4 5 6 5 5 4 2 1 1 2 3 2 1 1 3 3 3 5 7 6 3 3 3 3 2 4 7 11 11 12 12 11 11 12 12 14 12 1 5 13 7 5 6 4 4 3 3 3 4 5 7 7 8 9 9 10
1 1 1 1 1 1 1 1 1 1 2 4 4 5 7 14 17 9 3 7 9 7 8 8 9 9 8 8 7 6 7 6 6 6 7 7 6 4 3 3 3 2 1 2 1 1 2 2 3 3 4 4 3 3 2 1 3 7 13 17 13 8 9 10 13 14 13 13 9 2 7 13 4 5 4 2 4 3 3 4 4 4 6 8 9 9 10 11
2 2 2 3 1 1 1 1 2 3 2 2 2 4 4 9 13 8 2 2 5 7 9 9 9 8 8 10 11 10 9 8 9 10 9 8 7 5 3 3 5 6 3 2 2 2 2 2 3 3 5 3 2 4 4 3 1 8 18 19 12 9 9 12 13 12 11 12 10 7 10 10 3 6 4 3 4 5 6 6 5 4 6 8 9 9 9 10
4 3 2 3 2 3 2 1 2 3 2 2 3 4 4 3 4 6 3 2 2 3 5 9 10 7 7 12 13 9 8 7 6 6 5 5 5 4 3 4 6 7 7 5 3 2 4 4 3 4 6 2 0 4 6 5 1 9 12 10 14 15 14 11 10 12 12 12 10 9 11 7 4 6 6 6 7 8 8 7 5 5 7 8 8 8 8 8
Wind_Direction
114 129 150 156 176 191 199 209 217 212 209 209 206 194 194 198 180 175 184 175 151 117 62 33 20 15 10 2 357 356 349 345 356 19 38 99 147 147 137 114 122 117 103 97 110 130 99 72 55 57 92 65 9 338 31 25 347 270 237 250 154 149 118 165 172 160 93 105 117 84 357 317 335 9 57 251 221 253 292 293 320 101 97 83 64 20 9 17
148 169 172 180 192 206 208 205 205 213 219 206 205 199 189 197 196 196 189 175 157 127 40 35 24 17 12 0 357 353 344 345 40 58 50 111 139 145 142 125 124 110 109 124 124 142 130 89 65 51 74 70 358 345 210 352 335 330 122 319 131 120 90 147 146 139 184 65 66 95 164 286 327 355 353 300 271 270 297 301 115 122 116 77 42 26 23 25
174 176 182 199 208 219 225 218 206 204 212 204 200 200 191 198 203 204 194 180 113 72 20 28 24 13 6 0 356 349 342 343 115 64 66 117 131 133 131 126 121 105 109 132 120 113 117 111 100 56 56 65 34 0 29 9 333 342 234 292 99 108 132 200 204 176 199 19 313 179 143 254 290 326 304 315 306 283 322 31 45 108 46 23 25 20 18 25
181 186 193 213 220 229 240 237 225 210 209 203 199 203 203 208 213 215 209 203 262 333 0 25 11 7 2 357 349 347 339 298 153 119 120 127 130 125 123 126 120 103 103 117 108 107 110 101 80 52 64 92 52 326 36 18 344 159 274 16 95 132 195 174 201 206 177 223 280 1 213 254 114 253 282 308 305 291 93 29 354 348 8 13 22 15 16 27
195 206 203 218 231 239 243 243 245 226 211 203 203 205 204 215 233 228 220 220 224 282 333 357 352 356 353 353 349 344 328 284 150 169 162 144 143 130 128 135 127 109 114 124 115 115 112 94 80 70 52 102 99 205 88 28 352 173 91 42 105 176 248 139 173 191 150 184 216 218 251 309 99 228 246 258 289 345 44 8 6 26 37 28 18 14 24 29
210 227 217 224 235 235 236 240 250 240 225 210 204 203 207 214 230 238 228 228 220 275 300 329 343 343 344 352 348 338 312 291 158 188 178 162 162 144 142 145 136 128 132 133 129 130 112 90 128 118 76 108 103 37 90 65 313 264 120 111 165 199 270 127 156 184 160 186 213 225 295 31 238 255 205 231 304 41 47 27 44 56 51 37 29 29 30 28
217 233 236 237 236 242 240 228 233 236 232 221 208 207 215 218 231 248 243 243 260 299 311 324 326 330 342 350 353 12 310 287 202 195 187 180 178 161 155 153 157 158 154 146 140 144 131 147 162 137 133 119 153 122 103 135 229 275 156 154 187 197 244 212 148 180 187 219 227 132 299 232 245 275 171 148 59 67 70 62 67 68 59 50 45 39 33 30
221 226 236 249 253 255 253 241 240 236 232 228 218 217 222 226 243 263 266 267 278 304 311 307 315 337 354 12 350 346 260 254 206 198 198 193 188 179 173 174 188 181 175 172 162 160 156 164 151 171 202 85 173 150 132 220 187 235 240 136 151 200 240 247 231 223 215 239 223 174 236 231 233 211 143 95 77 89 82 72 74 77 64 53 47 40 35 32
226 225 231 259 287 276 268 263 256 247 240 230 222 225 228 227 242 270 280 284 290 312 313 292 300 289 250 106 72 286 251 178 191 202 204 203 205 200 195 200 203 194 185 177 174 172 175 183 163 194 175 102 185 149 159 242 199 200 196 146 215 242 264 256 249 243 227 236 175 209 247 188 173 192 131 75 82 116 96 72 61 66 58 49 45 38 33 29
225 227 232 269 296 287 279 275 272 267 248 232 226 230 233 230 240 267 280 288 286 298 297 278 282 246 220 163 189 270 230 150 185 190 192 200 205 205 208 211 204 201 187 164 174 173 186 192 151 169 106 107 173 138 169 240 42 121 135 251 254 273 287 246 249 259 243 231 194 233 263 127 122 244 146 76 92 146 111 73 53 59 57 46 42 35 29 26
225 226 234 266 292 287 263 268 281 279 253 236 233 233 236 235 238 262 276 287 286 281 278 259 248 228 177 176 231 257 206 181 186 173 176 189 193 195 202 200 194 200 187 168 185 181 177 154 139 139 147 135 153 142 190 202 71 94 298 268 248 256 261 239 254 280 267 229 195 219 227 125 156 228 101 63 98 170 114 84 64 64 65 53 48 40 31 27
221 224 236 258 281 273 261 274 280 277 267 241 239 240 239 238 235 258 274 285 281 265 251 225 212 195 151 201 242 239 209 194 189 181 179 179 181 180 185 188 185 193 196 190 190 184 156 154 150 120 81 156 159 152 156 133 51 130 299 293 278 265 258 237 333 292 264 169 146 190 180 155 174 150 80 46 127 168 123 98 82 74 72 65 62 53 47 35
217 214 223 238 248 253 271 288 279 271 276 249 247 248 239 244 244 256 273 276 265 246 220 210 197 175 169 251 233 222 218 198 184 179 174 166 164 170 177 184 182 183 194 196 178 169 156 160 153 87 94 169 146 116 138 129 292 225 200 315 300 284 252 113 62 298 272 135 129 227 238 167 156 136 57 26 184 194 159 98 85 78 77 70 70 62 56 42
222 215 216 235 249 263 279 288 286 277 273 262 254 250 245 256 254 253 268 254 244 228 201 193 185 167 191 257 230 215 211 198 189 181 174 170 158 150 158 168 172 171 166 164 159 152 149 146 124 104 92 351 107 139 148 126 311 284 267 241 284 293 188 124 78 307 279 127 176 238 268 201 153 150 29 15 233 209 183 99 86 77 81 71 74 72 61 53
227 223 218 234 252 265 263 275 289 282 268 271 261 255 262 262 261 224 196 187 165 192 168 166 172 161 237 256 240 218 206 202 204 202 199 189 172 143 145 148 140 141 134 135 143 139 137 135 126 121 99 22 151 165 193 192 147 346 275 241 186 268 235 124 82 334 298 80 170 232 261 220 155 152 35 13 279 189 157 108 94 77 79 69 73 73 69 66
221 222 213 218 226 245 253 274 287 282 275 276 268 291 293 296 120 136 151 139 130 140 136 155 165 173 274 243 191 210 204 204 209 211 205 193 191 161 139 131 116 115 114 110 120 123 117 114 102 58 115 160 182 184 213 252 233 170 244 259 230 238 270 354 101 37 335 91 148 243 276 296 147 140 50 44 254 169 146 124 109 89 76 69 62 60 63 68
219 222 214 222 233 240 251 267 275 283 286 214 84 338 332 102 117 122 115 120 118 105 111 146 146 178 258 199 208 223 188 192 195 194 191 186 184 159 137 118 101 107 107 102 110 115 81 63 102 237 152 167 180 178 215 246 240 193 198 252 256 241 265 284 139 92 359 254 226 229 264 277 149 138 90 64 86 195 149 130 122 100 83 74 64 61 55 52
221 226 221 233 241 240 246 255 268 285 279 141 66 339 115 110 114 123 128 124 103 86 93 140 141 226 235 184 197 169 126 161 168 168 176 169 162 156 140 117 122 125 118 108 107 115 23 39 218 222 173 183 179 181 212 237 250 203 186 228 244 227 240 256 244 101 30 249 245 223 243 265 210 149 145 86 115 214 143 120 127 109 99 92 78 75 56 51
220 220 222 229 236 246 247 254 271 274 189 134 89 103 108 97 97 130 146 136 129 155 195 176 176 237 250 172 130 105 109 133 146 154 156 151 153 147 125 118 129 137 142 161 176 152 156 147 166 219 210 202 190 199 218 226 33 164 174 226 247 248 249 246 218 90 346 261 251 249 253 266 258 189 142 130 141 161 139 125 133 122 107 104 85 77 62 59
215 216 226 229 237 249 240 253 275 209 163 153 141 132 117 129 167 174 174 202 225 228 26 180 192 228 34 123 126 123 120 121 127 156 154 153 150 132 105 115 119 146 173 178 163 143 209 197 198 220 221 201 195 206 220 92 80 134 168 232 243 253 264 259 126 108 77 271 254 253 260 267 266 243 127 134 164 158 164 160 151 141 124 113 95 89 75 65
216 220 235 241 241 237 228 262 279 187 165 174 171 173 210 196 209 217 183 224 234 237 259 205 214 268 278 125 153 148 133 119 83 158 162 160 156 152 152 158 163 181 185 125 111 113 216 217 221 224 199 134 199 204 190 135 163 205 233 242 241 237 258 275 117 117 134 251 257 249 258 262 260 244 108 142 184 172 177 176 166 149 135 130 116 109 90 79
224 225 237 245 237 226 230 273 266 183 169 184 191 217 276 253 176 71 118 257 239 227 233 219 245 260 228 152 176 171 173 169 153 176 173 165 174 190 171 169 192 184 142 128 137 167 207 228 230 197 92 83 113 177 189 216 221 222 230 242 251 234 261 278 172 109 157 228 262 248 264 268 258 172 112 150 175 149 139 163 165 159 163 164 146 131 124 123
226 224 228 235 233 226 245 267 239 177 182 194 200 214 243 185 135 94 235 277 277 211 209 202 213 223 199 199 194 183 204 194 175 188 180 171 182 197 166 180 199 156 150 180 191 199 204 238 230 145 125 140 116 148 182 208 226 221 215 227 244 218 235 260 176 100 164 225 294 290 279 272 253 165 133 138 139 130 130 141 145 159 166 153 147 153 146 143
226 226 224 227 233 233 242 253 205 191 205 208 216 214 182 120 141 113 314 265 273 212 200 205 207 213 197 190 182 184 209 213 183 183 180 178 162 152 179 185 175 157 186 198 204 216 206 3 183 152 161 184 167 160 179 202 224 216 214 227 245 230 223 245 291 61 215 203 242 266 278 269 243 214 180 139 148 155 153 163 164 163 160 154 158 167 155 133
224 230 231 223 220 218 221 231 202 205 209 212 229 220 192 151 127 117 352 278 254 221 210 204 193 213 193 166 167 175 206 220 209 171 176 183 161 143 178 167 176 199 196 192 209 232 223 81 129 149 162 189 186 186 195 210 232 225 214 222 241 248 234 230 164 310 259 232 178 239 271 259 170 219 209 154 173 178 171 191 187 172 169 178 176 166 159 147
224 228 231 215 204 197 195 219 207 203 207 221 234 216 197 194 137 127 145 316 260 201 140 184 182 185 173 155 156 144 173 224 188 121 168 187 179 140 173 149 193 224 180 168 213 249 201 124 137 147 159 179 193 218 201 195 231 250 210 212 229 240 235 213 183 198 257 278 81 219 267 264 216 225 182 162 196 193 186 208 201 187 183 183 181 170 166 161
228 229 226 211 202 193 181 200 197 184 195 236 234 207 197 198 177 174 200 292 267 172 131 188 192 166 161 156 156 148 193 192 106 108 160 183 181 133 210 177 163 208 146 145 222 233 154 151 165 172 167 173 198 227 186 177 220 250 98 178 202 208 211 202 192 205 253 333 179 203 251 279 271 255 125 156 205 209 208 215 205 196 193 186 181 173 168 166
228 231 225 211 210 207 194 184 183 185 198 231 219 199 191 186 184 187 193 245 271 114 117 160 112 114 126 137 154 142 324 88 123 159 75 98 170 144 228 198 174 164 154 184 215 225 148 172 186 181 180 197 207 220 158 175 211 288 83 127 155 176 187 178 188 211 250 321 244 207 166 263 265 220 120 159 220 233 218 211 208 198 193 188 181 174 166 160
225 225 221 211 212 216 209 200 192 204 215 215 183 184 171 167 183 118 75 226 228 94 93 125 131 89 108 139 146 88 68 30 95 157 85 102 121 65 225 204 151 146 151 232 229 336 68 201 201 179 189 202 169 40 137 184 200 131 122 105 95 91 101 132 194 185 141 238 251 209 172 228 269 205 175 187 237 246 210 198 202 188 187 189 178 172 166 159
223 220 215 206 203 204 204 209 215 216 220 215 182 166 157 157 178 142 198 228 194 99 87 133 151 145 146 152 171 164 128 45 84 111 113 134 92 44 29 100 99 140 146 291 265 37 66 36 323 192 199 157 108 60 32 59 122 142 142 112 99 92 94 103 148 143 195 236 245 195 176 224 267 219 208 206 245 249 169 176 180 173 183 186 176 171 168 167
221 217 210 202 198 195 192 209 215 209 216 200 167 153 152 149 130 189 207 243 10 138 139 142 145 155 161 163 171 172 145 95 153 156 148 151 139 123 153 156 128 139 183 238 224 119 108 165 180 159 87 106 111 85 48 44 114 162 159 143 133 120 139 154 132 170 237 230 152 68 157 222 237 225 214 142 102 123 168 175 174 177 184 180 174 173 169 172
218 214 209 203 200 197 194 206 208 202 194 170 157 148 160 162 216 222 208 92 127 188 155 147 171 177 175 168 142 152 146 143 170 172 157 161 175 174 185 188 165 165 213 213 195 148 198 199 151 90 136 176 144 113 82 80 207 215 172 168 180 173 174 206 192 197 240 228 89 60 159 211 238 247 258 151 138 156 180 170 174 177 179 174 171 169 168 174
216 212 209 204 200 199 202 206 203 197 182 163 159 165 177 181 217 220 197 158 188 166 108 117 145 166 167 162 156 153 135 150 168 175 160 160 185 190 211 224 179 197 224 188 183 182 201 202 156 162 189 200 182 168 161 167 189 199 183 181 193 181 188 212 197 227 261 193 73 48 158 211 246 258 260 165 123 108 65 33 168 172 172 170 167 165 169 176
218 211 207 205 203 205 205 201 195 193 182 165 166 182 182 210 225 211 196 195 191 61 79 115 121 140 167 175 171 163 155 176 167 162 161 168 189 199 207 219 210 232 74 159 189 194 209 234 177 176 161 173 189 200 149 142 166 195 193 211 216 201 219 222 202 237 270 103 105 102 190 205 195 151 345 29 73 63 103 97 128 158 160 156 157 163 172 180
219 211 207 201 200 205 203 195 188 186 180 167 178 183 191 217 223 209 199 181 146 97 87 113 125 145 185 206 172 183 204 218 166 158 173 178 193 199 194 198 197 189 158 179 191 180 216 267 132 131 21 171 182 198 62 123 156 181 51 286 248 242 224 92 0 29 57 64 183 179 232 241 184 131 127 282 253 159 158 153 156 163 158 153 161 173 180 186
214 208 204 196 197 201 197 191 184 179 173 168 204 198 205 216 203 202 200 156 151 142 122 125 139 157 191 186 190 205 227 192 162 174 196 195 224 212 191 195 189 188 188 183 170 157 196 270 74 75 12 170 178 155 119 167 162 144 173 201 212 349 83 125 142 68 64 269 230 173 222 238 171 211 169 162 211 186 165 168 169 170 167 168 179 185 189 192
206 200 199 198 201 198 193 188 180 173 168 179 217 214 220 225 175 157 213 115 135 141 140 170 184 174 185 187 196 194 186 153 169 188 185 179 227 199 189 227 190 191 206 197 186 202 180 139 93 140 150 111 320 148 100 1 64 141 188 187 138 23 309 188 244 123 178 254 254 184 219 211 182 211 158 162 206 201 183 172 167 172 175 183 192 192 193 195
201 195 204 207 203 196 190 187 177 169 165 189 219 231 229 219 199 94 113 106 127 152 176 201 188 179 187 189 188 180 179 177 171 185 181 176 219 179 175 208 192 192 205 193 157 224 189 158 115 125 160 119 282 205 130 55 343 101 200 154 123 224 204 163 226 236 211 246 263 197 216 222 204 199 160 187 209 198 177 168 175 184 185 190 196 193 193 194
194 190 227 212 201 193 188 184 175 166 174 194 215 233 224 215 215 108 180 182 133 175 201 210 193 190 193 182 163 163 186 186 163 175 194 186 210 179 172 188 194 196 195 175 172 185 180 214 174 128 158 130 164 215 185 168 135 48 153 157 257 270 217 165 189 225 227 242 266 220 201 213 213 199 181 194 201 180 166 174 190 194 191 193 194 189 190 194
181 191 257 191 191 191 185 182 177 174 187 197 209 217 210 215 209 174 209 210 187 198 210 216 197 185 185 179 149 157 190 195 170 178 203 185 190 191 184 182 170 182 184 178 191 165 146 224 186 129 140 176 181 210 198 175 163 165 176 176 185 193 19 267 212 135 247 244 248 261 260 205 185 199 192 192 187 170 171 181 191 194 194 195 193 189 189 192
164 227 225 169 181 184 178 179 188 187 192 200 208 212 207 196 179 181 205 214 282 251 151 231 207 182 168 173 172 166 175 188 182 184 206 193 199 205 180 208 159 151 151 177 200 194 172 188 168 151 176 194 189 354 299 186 169 179 186 184 186 173 152 215 224 173 235 262 239 264 280 237 143 17 274 106 45 182 186 187 186 191 196 195 193 193 193 193
162 225 164 162 174 173 169 187 200 187 209 206 198 204 190 171 188 188 177 182 259 215 123 308 233 187 167 163 167 164 160 176 187 188 199 191 197 170 85 348 188 151 149 171 188 171 127 128 147 150 174 192 53 26 354 320 8 338 239 191 188 190 178 206 230 197 164 233 64 25 284 278 107 19 347 26 2 291 226 219 208 203 199 196 197 196 194 192
194 208 132 160 171 168 168 208 192 190 225 196 155 182 177 179 196 187 181 192 196 170 167 204 216 208 208 158 144 160 156 163 185 182 193 180 172 145 121 323 190 152 148 150 151 151 145 156 157 141 100 76 52 55 101 23 48 224 272 184 195 212 194 217 237 143 183 202 141 183 253 245 118 35 351 355 328 327 265 242 230 226 209 201 202 199 190 180
186 140 111 173 180 178 183 202 191 200 214 183 165 188 186 188 191 188 198 199 188 164 182 202 204 208 214 160 153 171 171 175 190 179 170 188 179 85 38 299 140 142 178 186 166 178 184 177 166 162 166 165 172 189 184 234 210 210 201 173 204 191 116 73 93 99 244 203 164 217 250 216 112 296 286 29 331 292 221 225 222 220 210 198 193 187 174 166
144 80 351 198 197 199 205 205 192 198 202 197 198 194 189 205 200 195 198 192 181 167 174 205 199 166 176 159 135 171 180 169 173 175 146 175 189 43 21 339 8 156 211 258 215 184 183 186 180 183 191 194 195 197 197 181 167 192 187 178 205 191 163 163 164 192 231 178 164 218 247 236 117 289 270 257 276 257 192 183 204 205 196 193 181 169 161 160
156 148 180 197 227 236 260 297 202 194 194 198 204 195 195 205 206 188 191 189 186 167 147 155 159 135 172 179 161 174 182 112 99 160 168 167 165 13 2 0 13 177 183 127 44 119 125 262 223 221 225 198 163 157 169 122 140 188 195 182 199 199 185 190 201 206 201 158 201 224 234 253 240 178 219 240 208 224 216 183 195 192 185 192 183 172 166 164
165 170 164 166 220 217 243 284 228 206 195 192 191 187 197 201 188 167 196 202 184 165 141 101 171 179 191 184 179 179 164 103 101 156 172 169 127 67 311 41 53 342 158 52 19 70 106 233 233 242 273 263 98 103 148 134 168 192 188 192 202 196 186 196 211 208 144 167 246 230 195 240 244 171 192 216 190 208 215 191 198 190 180 182 170 163 166 169
190 149 166 48 344 207 224 235 224 235 211 194 181 176 193 197 190 185 192 189 172 173 174 219 198 194 186 171 164 161 151 130 136 166 172 164 132 128 27 32 34 352 13 41 358 83 137 219 199 184 244 257 102 110 165 153 163 192 193 204 203 192 191 198 211 210 165 208 251 232 172 228 242 177 197 206 180 195 194 182 196 174 163 162 156 166 177 180
146 76 21 350 7 190 225 250 221 244 218 196 183 182 190 194 195 193 162 145 174 188 180 184 197 191 167 148 138 145 164 161 157 178 177 169 166 156 139 144 135 3 34 108 61 101 168 202 162 170 229 237 157 137 163 164 206 233 226 225 212 197 193 192 209 217 208 227 250 180 189 241 239 173 201 195 151 154 119 149 184 167 162 164 168 184 192 191
164 152 140 72 37 78 330 293 131 109 220 208 196 190 192 197 195 187 153 169 176 184 180 175 183 180 165 161 159 168 185 167 149 173 176 169 180 179 177 180 144 75 41 130 125 303 216 180 115 143 222 228 155 131 99 133 221 238 245 242 229 204 192 197 217 222 219 234 244 193 241 257 235 148 181 143 117 121 132 175 191 170 164 168 179 197 203 202
92 75 121 118 147 168 140 206 143 127 184 212 189 178 191 206 193 165 131 199 160 167 183 171 163 168 173 182 185 186 191 175 161 175 177 172 185 194 191 176 145 142 162 161 141 159 198 165 94 134 208 222 149 158 144 92 138 249 254 245 221 204 206 206 217 222 216 225 228 219 242 250 182 144 167 142 148 180 186 188 190 178 171 175 189 201 206 208
99 58 88 103 145 178 160 162 167 165 189 177 154 157 158 191 183 145 129 351 54 127 180 166 156 159 182 195 199 194 183 168 157 170 169 156 166 177 165 152 147 153 161 166 160 153 169 168 138 167 198 225 338 175 152 112 167 252 251 217 196 211 216 207 220 225 215 216 219 223 238 238 165 157 172 173 186 199 199 192 190 184 177 183 198 206 209 212